Simultaneous Nadir Overpasses (SNOs) Predictions

Prediction of SNOs between LANDSAT-8 and METOP-A Satellite Orbit:

Table of predicted SNOs for the next 14.0 days since TLE Epoch: 12/23/2017
Index Date (LANDSAT-8) Time (LANDSAT-8) Lat,Lon (LANDSAT-8) SZA (LANDSAT-8 ) Date (METOP-A) Time (METOP-A) Lat,Lon (METOP-A) SZA (METOP-A ) Distance(km) Time Diff (sec)
1 12/23/2017 08:39:30 81.26, 92.18 106.81 12/23/2017 08:38:26 81.27, 92.14 106.78 0.70 64
2 12/23/2017 09:28:56 -81.28, -99.91 73.16 12/23/2017 09:29:06 -81.28,-100.07 73.17 2.76 10
3 12/26/2017 04:13:43 81.28, 158.82 106.73 12/26/2017 04:12:43 81.28, 158.99 106.73 2.96 60
4 12/26/2017 05:03:09 -81.29, -33.24 73.23 12/26/2017 05:03:23 -81.29, -33.20 73.22 0.73 14
5 12/28/2017 23:47:57 81.28,-134.58 106.59 12/28/2017 23:47:02 81.28,-134.56 106.57 0.66 55
6 12/29/2017 00:37:24 -81.28, 33.01 73.42 12/29/2017 00:37:43 -81.28, 32.87 73.43 2.32 19
7 12/31/2017 19:22:12 81.27, -68.39 106.34 12/31/2017 19:21:22 81.27, -68.52 106.30 2.25 50
8 12/31/2017 20:11:38 -81.29, 99.60 73.62 12/31/2017 20:12:01 -81.29, 99.70 73.60 1.71 23
9 01/03/2018 14:56:25 81.28, -1.86 106.06 01/03/2018 14:55:39 81.28, -1.73 106.06 2.35 46




NCC Satellite Simultaneous Nadir Overpasses (SNOs) Prediction Service
